Time,TemperatureF,DewpointF,PressureIn,WindDirection,WindDirectionDegrees,WindSpeedMPH,WindSpeedGustMPH,Humidity,HourlyPrecipIn,Conditions,Clouds,dailyrainin,SoftwareType,DateUTC
2013-07-20 00:01:00,67.1,64.9,29.95,WNW,282,4.0,6.0,93,0.00,,,0.00,meteohub,2013-07-20 04:01:00,
2013-07-20 00:02:00,67.1,64.9,29.94,WNW,288,2.0,6.0,93,0.00,,,0.00,meteohub,2013-07-20 04:02:00,
2013-07-20 00:07:00,67.3,64.9,29.95,South,181,1.0,5.0,92,0.00,,,0.00,meteohub,2013-07-20 04:07:00,
2013-07-20 00:12:00,67.5,65.1,29.95,South,190,0.0,4.0,92,0.00,,,0.00,meteohub,2013-07-20 04:12:00,
2013-07-20 00:17:00,67.5,65.1,29.94,SSW,210,0.0,4.0,92,0.00,,,0.00,meteohub,2013-07-20 04:17:00,
2013-07-20 00:22:00,67.5,65.1,29.94,West,269,0.0,3.0,92,0.00,,,0.00,meteohub,2013-07-20 04:22:00,
2013-07-20 00:27:00,67.5,65.1,29.94,West,269,0.0,2.0,92,0.00,,,0.00,meteohub,2013-07-20 04:27:00,
2013-07-20 00:32:00,67.5,65.1,29.94,ESE,110,0.0,2.0,92,0.00,,,0.00,meteohub,2013-07-20 04:32:00,
2013-07-20 00:37:00,67.5,65.1,29.94,ESE,110,0.0,3.0,92,0.00,,,0.00,meteohub,2013-07-20 04:37:00,
2013-07-20 00:42:00,67.3,64.9,29.94,ESE,110,0.0,3.0,92,0.00,,,0.00,meteohub,2013-07-20 04:42:00,
2013-07-20 00:47:00,67.3,64.9,29.94,ESE,111,0.0,3.0,92,0.00,,,0.00,meteohub,2013-07-20 04:47:00,
2013-07-20 00:52:00,67.1,64.8,29.94,ESE,115,2.0,2.0,92,0.00,,,0.00,meteohub,2013-07-20 04:52:00,
2013-07-20 00:57:00,66.9,64.8,29.94,ESE,120,1.0,2.0,93,0.00,,,0.00,meteohub,2013-07-20 04:57:00,
2013-07-20 01:02:00,66.9,64.8,29.94,ESE,115,1.0,2.0,93,0.00,,,0.00,meteohub,2013-07-20 05:02:00,
2013-07-20 01:07:00,66.7,64.6,29.93,ENE,77,1.0,2.0,93,0.00,,,0.00,meteohub,2013-07-20 05:07:00,
2013-07-20 01:12:00,66.7,64.6,29.94,South,187,0.0,2.0,93,0.00,,,0.00,meteohub,2013-07-20 05:12:00,
2013-07-20 01:17:00,66.6,64.4,29.93,West,271,1.0,2.0,93,0.00,,,0.00,meteohub,2013-07-20 05:17:00,
2013-07-20 01:22:00,66.4,64.6,29.93,West,271,1.0,2.0,94,0.00,,,0.00,meteohub,2013-07-20 05:22:00,
2013-07-20 01:27:00,66.4,64.6,29.93,West,271,1.0,2.0,94,0.00,,,0.00,meteohub,2013-07-20 05:27:00,
2013-07-20 01:32:00,66.2,64.4,29.92,West,271,0.0,2.0,94,0.00,,,0.00,meteohub,2013-07-20 05:32:00,
2013-07-20 01:37:00,66.0,64.2,29.92,West,271,1.0,2.0,94,0.00,,,0.00,meteohub,2013-07-20 05:37:00,
2013-07-20 01:42:00,66.0,64.2,29.92,West,271,0.0,2.0,94,0.00,,,0.00,meteohub,2013-07-20 05:42:00,
2013-07-20 01:47:00,65.8,64.4,29.91,SSW,209,0.0,2.0,95,0.00,,,0.00,meteohub,2013-07-20 05:47:00,
2013-07-20 01:52:00,65.8,64.4,29.91,WSW,255,2.0,2.0,95,0.00,,,0.00,meteohub,2013-07-20 05:52:00,
2013-07-20 01:57:00,65.8,64.4,29.91,NNW,329,0.0,3.0,95,0.00,,,0.00,meteohub,2013-07-20 05:57:00,
2013-07-20 02:02:00,65.8,64.4,29.91,ENE,62,1.0,4.0,95,0.00,,,0.00,meteohub,2013-07-20 06:02:00,
2013-07-20 02:07:00,65.8,64.4,29.91,East,83,1.0,4.0,95,0.00,,,0.00,meteohub,2013-07-20 06:07:00,
2013-07-20 02:12:00,65.8,64.4,29.91,ESE,102,1.0,4.0,95,0.00,,,0.00,meteohub,2013-07-20 06:12:00,
2013-07-20 02:17:00,65.8,64.4,29.91,SE,129,1.0,3.0,95,0.00,,,0.00,meteohub,2013-07-20 06:17:00,
2013-07-20 02:22:00,65.8,64.4,29.91,SSE,148,0.0,2.0,95,0.00,,,0.00,meteohub,2013-07-20 06:22:00,
2013-07-20 02:27:00,65.8,64.4,29.90,WNW,298,6.0,6.0,95,0.00,,,0.00,meteohub,2013-07-20 06:27:00,
2013-07-20 02:32:00,65.8,64.4,29.90,WNW,291,0.0,7.0,95,0.00,,,0.00,meteohub,2013-07-20 06:32:00,
2013-07-20 02:37:00,65.8,64.4,29.91,SSE,157,1.0,7.0,95,0.00,,,0.00,meteohub,2013-07-20 06:37:00,
2013-07-20 02:42:00,65.8,64.4,29.91,East,81,2.0,7.0,95,0.00,,,0.00,meteohub,2013-07-20 06:42:00,
2013-07-20 02:47:00,65.8,64.4,29.90,East,98,0.0,4.0,95,0.00,,,0.00,meteohub,2013-07-20 06:47:00,
2013-07-20 02:52:00,65.8,64.4,29.91,East,98,1.0,4.0,95,0.00,,,0.00,meteohub,2013-07-20 06:52:00,
2013-07-20 02:57:00,65.8,64.4,29.90,WNW,293,1.0,2.0,95,0.00,,,0.00,meteohub,2013-07-20 06:57:00,
2013-07-20 03:02:00,65.7,64.2,29.91,WNW,293,0.0,2.0,95,0.00,,,0.00,meteohub,2013-07-20 07:02:00,
2013-07-20 03:07:00,65.7,64.2,29.91,NW,325,0.0,2.0,95,0.00,,,0.00,meteohub,2013-07-20 07:07:00,
2013-07-20 03:12:00,65.7,64.2,29.90,WNW,292,1.0,2.0,95,0.00,,,0.00,meteohub,2013-07-20 07:12:00,
2013-07-20 03:17:00,65.7,64.4,29.90,West,280,0.0,4.0,96,0.00,,,0.00,meteohub,2013-07-20 07:17:00,
2013-07-20 03:22:00,65.8,64.6,29.90,West,281,0.0,4.0,96,0.00,,,0.00,meteohub,2013-07-20 07:22:00,
2013-07-20 03:27:00,65.7,64.2,29.90,West,281,0.0,4.0,95,0.00,,,0.00,meteohub,2013-07-20 07:27:00,
2013-07-20 03:32:00,65.7,64.4,29.89,West,266,2.0,4.0,96,0.00,,,0.00,meteohub,2013-07-20 07:32:00,
2013-07-20 03:37:00,65.7,64.4,29.89,WNW,283,1.0,4.0,96,0.00,,,0.00,meteohub,2013-07-20 07:37:00,
2013-07-20 03:42:00,65.7,64.4,29.89,WNW,285,1.0,4.0,96,0.00,,,0.00,meteohub,2013-07-20 07:42:00,
2013-07-20 03:47:00,65.7,64.4,29.89,West,279,0.0,4.0,96,0.00,,,0.00,meteohub,2013-07-20 07:47:00,
2013-07-20 03:53:00,65.7,64.4,29.89,NNE,17,1.0,4.0,96,0.00,,,0.00,meteohub,2013-07-20 07:53:00,
2013-07-20 03:58:00,65.7,64.4,29.89,West,279,1.0,5.0,96,0.00,,,0.00,meteohub,2013-07-20 07:58:00,
2013-07-20 04:03:00,65.7,64.4,29.89,WNW,291,1.0,6.0,96,0.00,,,0.00,meteohub,2013-07-20 08:03:00,
2013-07-20 04:08:00,65.7,64.4,29.89,West,279,2.0,6.0,96,0.00,,,0.00,meteohub,2013-07-20 08:08:00,
2013-07-20 04:13:00,65.8,64.6,29.89,West,277,2.0,6.0,96,0.00,,,0.00,meteohub,2013-07-20 08:13:00,
2013-07-20 04:18:00,65.8,64.6,29.89,WNW,301,1.0,6.0,96,0.00,,,0.00,meteohub,2013-07-20 08:18:00,
2013-07-20 04:23:00,66.0,64.6,29.89,West,279,0.0,7.0,95,0.00,,,0.00,meteohub,2013-07-20 08:23:00,
2013-07-20 04:28:00,66.0,64.6,29.89,West,276,2.0,7.0,95,0.00,,,0.00,meteohub,2013-07-20 08:28:00,
2013-07-20 04:33:00,66.4,64.9,29.89,SSW,195,1.0,10.0,95,0.00,,,0.00,meteohub,2013-07-20 08:33:00,
2013-07-20 04:38:00,66.4,64.9,29.89,West,273,2.0,10.0,95,0.00,,,0.00,meteohub,2013-07-20 08:38:00,
2013-07-20 04:43:00,66.4,64.9,29.89,West,270,1.0,10.0,95,0.00,,,0.00,meteohub,2013-07-20 08:43:00,
2013-07-20 04:48:00,66.4,64.9,29.89,WNW,292,2.0,6.0,95,0.00,,,0.00,meteohub,2013-07-20 08:48:00,
2013-07-20 04:53:00,66.4,64.9,29.89,WNW,292,0.0,6.0,95,0.00,,,0.00,meteohub,2013-07-20 08:53:00,
2013-07-20 04:58:00,66.4,64.9,29.89,West,278,2.0,4.0,95,0.00,,,0.00,meteohub,2013-07-20 08:58:00,
2013-07-20 05:03:00,66.4,64.9,29.89,West,277,2.0,4.0,95,0.00,,,0.00,meteohub,2013-07-20 09:03:00,
2013-07-20 05:08:00,66.2,64.4,29.89,SW,235,1.0,5.0,94,0.00,,,0.00,meteohub,2013-07-20 09:08:00,
2013-07-20 05:13:00,66.0,64.6,29.89,NW,326,0.0,6.0,95,0.00,,,0.00,meteohub,2013-07-20 09:13:00,
2013-07-20 05:18:00,66.0,64.6,29.89,WNW,293,1.0,6.0,95,0.00,,,0.00,meteohub,2013-07-20 09:18:00,
2013-07-20 05:23:00,65.8,64.0,29.89,WNW,291,1.0,4.0,94,0.00,,,0.00,meteohub,2013-07-20 09:23:00,
2013-07-20 05:28:00,65.8,64.4,29.89,WNW,291,1.0,5.0,95,0.00,,,0.00,meteohub,2013-07-20 09:28:00,
2013-07-20 05:33:00,65.7,64.2,29.88,West,279,1.0,5.0,95,0.00,,,0.00,meteohub,2013-07-20 09:33:00,
2013-07-20 05:38:00,65.7,64.2,29.89,WNW,286,4.0,5.0,95,0.00,,,0.00,meteohub,2013-07-20 09:38:00,
2013-07-20 05:43:00,65.7,63.9,29.89,West,281,2.0,5.0,94,0.00,,,0.00,meteohub,2013-07-20 09:43:00,
2013-07-20 05:48:00,65.7,63.9,29.89,WNW,284,2.0,5.0,94,0.00,,,0.00,meteohub,2013-07-20 09:48:00,
2013-07-20 05:53:00,65.7,64.2,29.89,WNW,284,0.0,5.0,95,0.00,,,0.00,meteohub,2013-07-20 09:53:00,
2013-07-20 05:58:00,65.7,63.9,29.89,WNW,284,0.0,4.0,94,0.00,,,0.00,meteohub,2013-07-20 09:58:00,
2013-07-20 06:03:00,65.5,63.7,29.89,WNW,284,0.0,2.0,94,0.00,,,0.00,meteohub,2013-07-20 10:03:00,
2013-07-20 06:08:00,65.5,63.7,29.89,WNW,287,1.0,2.0,94,0.00,,,0.00,meteohub,2013-07-20 10:08:00,
2013-07-20 06:13:00,65.5,63.7,29.89,WNW,287,1.0,2.0,94,0.00,,,0.00,meteohub,2013-07-20 10:13:00,
2013-07-20 06:18:00,65.1,63.7,29.89,WNW,287,1.0,2.0,95,0.00,,,0.00,meteohub,2013-07-20 10:18:00,
2013-07-20 06:23:00,65.1,63.7,29.90,WNW,287,2.0,2.0,95,0.00,,,0.00,meteohub,2013-07-20 10:23:00,
2013-07-20 06:28:00,65.1,63.7,29.89,WNW,287,2.0,2.0,95,0.00,,,0.00,meteohub,2013-07-20 10:28:00,
2013-07-20 06:33:00,65.1,63.7,29.90,WNW,287,1.0,2.0,95,0.00,,,0.00,meteohub,2013-07-20 10:33:00,
2013-07-20 06:38:00,64.9,63.5,29.90,WNW,287,2.0,2.0,95,0.00,,,0.00,meteohub,2013-07-20 10:38:00,
2013-07-20 06:43:00,65.1,63.7,29.90,WNW,287,6.0,6.0,95,0.00,,,0.00,meteohub,2013-07-20 10:43:00,
2013-07-20 06:48:00,65.3,63.5,29.90,WNW,294,4.0,8.0,94,0.00,,,0.00,meteohub,2013-07-20 10:48:00,
2013-07-20 06:53:00,65.5,63.7,29.90,WNW,296,4.0,8.0,94,0.00,,,0.00,meteohub,2013-07-20 10:53:00,
2013-07-20 06:58:00,65.7,63.9,29.90,WNW,293,5.0,8.0,94,0.00,,,0.00,meteohub,2013-07-20 10:58:00,
2013-07-20 07:03:00,65.8,64.0,29.90,West,266,5.0,9.0,94,0.00,,,0.00,meteohub,2013-07-20 11:03:00,
2013-07-20 07:08:00,66.0,63.9,29.90,WNW,287,5.0,9.0,93,0.00,,,0.00,meteohub,2013-07-20 11:08:00,
2013-07-20 07:13:00,66.2,64.0,29.90,NW,304,1.0,9.0,93,0.00,,,0.00,meteohub,2013-07-20 11:13:00,
2013-07-20 07:18:00,66.4,64.2,29.90,West,279,2.0,9.0,93,0.00,,,0.00,meteohub,2013-07-20 11:18:00,
2013-07-20 07:23:00,66.4,64.2,29.90,West,281,4.0,9.0,93,0.00,,,0.00,meteohub,2013-07-20 11:23:00,
2013-07-20 07:28:00,66.4,64.2,29.90,WNW,289,2.0,9.0,93,0.00,,,0.00,meteohub,2013-07-20 11:28:00,
2013-07-20 07:33:00,66.4,64.2,29.90,WNW,286,5.0,9.0,93,0.00,,,0.00,meteohub,2013-07-20 11:33:00,
2013-07-20 07:38:00,66.6,64.4,29.90,WNW,292,7.0,7.0,93,0.00,,,0.00,meteohub,2013-07-20 11:38:00,
2013-07-20 07:43:00,66.6,64.2,29.90,West,280,2.0,7.0,92,0.00,,,0.00,meteohub,2013-07-20 11:43:00,
2013-07-20 07:48:00,66.6,64.2,29.91,WNW,285,2.0,7.0,92,0.00,,,0.00,meteohub,2013-07-20 11:48:00,
2013-07-20 07:53:00,66.7,64.4,29.90,WNW,285,2.0,8.0,92,0.00,,,0.00,meteohub,2013-07-20 11:53:00,
2013-07-20 07:58:00,66.7,64.4,29.90,West,273,5.0,8.0,92,0.00,,,0.00,meteohub,2013-07-20 11:58:00,
2013-07-20 08:03:00,66.7,64.4,29.91,West,279,1.0,8.0,92,0.00,,,0.00,meteohub,2013-07-20 12:03:00,
2013-07-20 08:08:00,66.9,64.6,29.90,WNW,290,5.0,7.0,92,0.00,,,0.00,meteohub,2013-07-20 12:08:00,
2013-07-20 08:14:00,66.9,64.6,29.90,WNW,289,5.0,6.0,92,0.00,,,0.00,meteohub,2013-07-20 12:14:00,
2013-07-20 08:19:00,67.1,64.8,29.90,WNW,288,1.0,8.0,92,0.00,,,0.00,meteohub,2013-07-20 12:19:00,
2013-07-20 08:24:00,67.3,64.6,29.91,West,267,1.0,8.0,91,0.00,,,0.00,meteohub,2013-07-20 12:24:00,
2013-07-20 08:29:00,67.5,64.8,29.91,West,281,2.0,7.0,91,0.00,,,0.00,meteohub,2013-07-20 12:29:00,
2013-07-20 08:34:00,67.5,64.4,29.91,West,278,0.0,7.0,90,0.00,,,0.00,meteohub,2013-07-20 12:34:00,
2013-07-20 08:39:00,67.6,64.6,29.91,WNW,287,4.0,7.0,90,0.00,,,0.00,meteohub,2013-07-20 12:39:00,
2013-07-20 08:44:00,67.6,64.6,29.91,West,273,7.0,8.0,90,0.00,,,0.00,meteohub,2013-07-20 12:44:00,
2013-07-20 08:49:00,67.6,64.6,29.91,WNW,282,4.0,11.0,90,0.00,,,0.00,meteohub,2013-07-20 12:49:00,
2013-07-20 08:54:00,67.6,64.6,29.91,WNW,283,5.0,11.0,90,0.00,,,0.00,meteohub,2013-07-20 12:54:00,
2013-07-20 08:59:00,67.8,64.8,29.91,WNW,283,1.0,11.0,90,0.00,,,0.00,meteohub,2013-07-20 12:59:00,
2013-07-20 09:04:00,68.0,64.9,29.91,West,281,2.0,6.0,90,0.00,,,0.00,meteohub,2013-07-20 13:04:00,
2013-07-20 09:09:00,68.2,65.1,29.91,WNW,288,4.0,6.0,90,0.00,,,0.00,meteohub,2013-07-20 13:09:00,
2013-07-20 09:14:00,68.4,65.3,29.91,West,279,2.0,5.0,90,0.00,,,0.00,meteohub,2013-07-20 13:14:00,
2013-07-20 09:19:00,68.5,65.1,29.91,West,279,1.0,4.0,89,0.00,,,0.00,meteohub,2013-07-20 13:19:00,
2013-07-20 09:24:00,69.1,66.0,29.91,West,279,0.0,5.0,90,0.00,,,0.00,meteohub,2013-07-20 13:24:00,
2013-07-20 09:29:00,69.3,65.8,29.91,West,279,1.0,5.0,89,0.00,,,0.00,meteohub,2013-07-20 13:29:00,
2013-07-20 09:34:00,69.4,65.5,29.91,West,279,2.0,5.0,87,0.00,,,0.00,meteohub,2013-07-20 13:34:00,
2013-07-20 09:39:00,69.6,65.7,29.91,West,268,1.0,4.0,87,0.00,,,0.00,meteohub,2013-07-20 13:39:00,
2013-07-20 09:44:00,70.0,65.7,29.91,NW,305,4.0,6.0,86,0.00,,,0.00,meteohub,2013-07-20 13:44:00,
2013-07-20 09:49:00,70.0,65.3,29.91,WNW,287,0.0,6.0,85,0.00,,,0.00,meteohub,2013-07-20 13:49:00,
2013-07-20 09:54:00,70.2,64.8,29.91,WNW,288,6.0,7.0,83,0.00,,,0.00,meteohub,2013-07-20 13:54:00,
2013-07-20 09:59:00,70.3,65.7,29.91,West,279,5.0,7.0,85,0.00,,,0.00,meteohub,2013-07-20 13:59:00,
2013-07-20 10:04:00,70.3,64.6,29.91,West,274,2.0,7.0,82,0.00,,,0.00,meteohub,2013-07-20 14:04:00,
2013-07-20 10:09:00,70.7,65.7,29.91,WNW,286,10.0,10.0,84,0.00,,,0.00,meteohub,2013-07-20 14:09:00,
2013-07-20 10:14:00,70.7,64.2,29.91,West,275,4.0,7.0,80,0.00,,,0.00,meteohub,2013-07-20 14:14:00,
2013-07-20 10:19:00,70.9,64.8,29.91,WNW,285,0.0,10.0,81,0.00,,,0.00,meteohub,2013-07-20 14:19:00,
2013-07-20 10:24:00,71.1,64.6,29.91,WNW,283,1.0,10.0,80,0.00,,,0.00,meteohub,2013-07-20 14:24:00,
2013-07-20 10:29:00,71.1,65.3,29.91,WNW,283,4.0,7.0,82,0.00,,,0.00,meteohub,2013-07-20 14:29:00,
2013-07-20 10:34:00,71.1,64.2,29.91,West,266,2.0,7.0,79,0.00,,,0.00,meteohub,2013-07-20 14:34:00,
2013-07-20 10:39:00,71.2,64.8,29.91,West,277,8.0,10.0,80,0.00,,,0.00,meteohub,2013-07-20 14:39:00,
2013-07-20 10:45:00,71.2,64.0,29.92,West,279,2.0,10.0,78,0.00,,,0.00,meteohub,2013-07-20 14:45:00,
2013-07-20 10:50:00,71.4,64.6,29.91,WNW,285,4.0,10.0,79,0.00,,,0.00,meteohub,2013-07-20 14:50:00,
2013-07-20 10:55:00,71.8,64.6,29.91,WNW,285,1.0,8.0,78,0.00,,,0.00,meteohub,2013-07-20 14:55:00,
2013-07-20 11:00:00,72.1,66.4,29.91,West,270,2.0,7.0,82,0.00,,,0.00,meteohub,2013-07-20 15:00:00,
2013-07-20 11:05:00,72.3,65.1,29.91,WNW,285,4.0,7.0,78,0.00,,,0.00,meteohub,2013-07-20 15:05:00,
2013-07-20 11:10:00,72.7,65.1,29.91,West,274,2.0,6.0,77,0.00,,,0.00,meteohub,2013-07-20 15:10:00,
2013-07-20 11:15:00,73.0,66.2,29.91,West,260,7.0,7.0,79,0.00,,,0.00,meteohub,2013-07-20 15:15:00,
2013-07-20 11:20:00,72.7,64.8,29.91,WSW,251,2.0,6.0,76,0.00,,,0.00,meteohub,2013-07-20 15:20:00,
2013-07-20 11:25:00,72.1,65.3,29.91,West,279,2.0,10.0,79,0.00,,,0.00,meteohub,2013-07-20 15:25:00,
2013-07-20 11:30:00,71.8,64.9,29.91,West,270,2.0,10.0,79,0.00,,,0.00,meteohub,2013-07-20 15:30:00,
2013-07-20 11:35:00,71.4,65.3,29.91,WNW,287,2.0,9.0,81,0.00,,,0.00,meteohub,2013-07-20 15:35:00,
2013-07-20 11:40:00,71.2,65.5,29.90,West,273,1.0,9.0,82,0.00,,,0.00,meteohub,2013-07-20 15:40:00,
2013-07-20 11:45:00,71.2,64.4,29.90,WNW,284,2.0,8.0,79,0.00,,,0.00,meteohub,2013-07-20 15:45:00,
2013-07-20 11:50:00,71.4,65.3,29.90,West,275,0.0,8.0,81,0.00,,,0.00,meteohub,2013-07-20 15:50:00,
2013-07-20 11:55:00,72.3,66.2,29.90,West,279,1.0,5.0,81,0.00,,,0.00,meteohub,2013-07-20 15:55:00,
2013-07-20 12:00:00,73.0,65.8,29.90,WNW,289,2.0,4.0,78,0.00,,,0.00,meteohub,2013-07-20 16:00:00,
2013-07-20 12:05:00,73.0,65.5,29.90,West,270,5.0,5.0,77,0.00,,,0.00,meteohub,2013-07-20 16:05:00,
2013-07-20 12:10:00,72.9,64.8,29.89,WNW,282,1.0,6.0,76,0.00,,,0.00,meteohub,2013-07-20 16:10:00,
2013-07-20 12:15:00,72.7,65.8,29.89,WSW,252,2.0,6.0,79,0.00,,,0.00,meteohub,2013-07-20 16:15:00,
2013-07-20 12:20:00,72.7,64.8,29.89,WNW,284,4.0,6.0,76,0.00,,,0.00,meteohub,2013-07-20 16:20:00,
2013-07-20 12:25:00,73.0,64.9,29.89,West,263,1.0,8.0,76,0.00,,,0.00,meteohub,2013-07-20 16:25:00,
2013-07-20 12:30:00,73.8,66.0,29.89,WNW,295,4.0,8.0,77,0.00,,,0.00,meteohub,2013-07-20 16:30:00,
2013-07-20 12:35:00,73.8,66.0,29.89,WNW,284,2.0,9.0,77,0.00,,,0.00,meteohub,2013-07-20 16:35:00,
2013-07-20 12:40:00,73.2,64.8,29.89,West,266,2.0,9.0,75,0.00,,,0.00,meteohub,2013-07-20 16:40:00,
2013-07-20 12:45:00,73.0,64.9,29.88,WNW,282,1.0,9.0,76,0.00,,,0.00,meteohub,2013-07-20 16:45:00,
2013-07-20 12:50:00,73.0,64.9,29.88,West,272,1.0,7.0,76,0.00,,,0.00,meteohub,2013-07-20 16:50:00,
2013-07-20 12:55:00,73.0,66.2,29.88,West,271,2.0,5.0,79,0.00,,,0.00,meteohub,2013-07-20 16:55:00,
2013-07-20 13:00:00,73.0,64.6,29.88,West,278,5.0,5.0,75,0.00,,,0.00,meteohub,2013-07-20 17:00:00,
2013-07-20 13:05:00,73.0,64.6,29.88,West,276,2.0,6.0,75,0.00,,,0.00,meteohub,2013-07-20 17:05:00,
2013-07-20 13:10:00,73.2,64.8,29.88,West,275,1.0,6.0,75,0.00,,,0.00,meteohub,2013-07-20 17:10:00,
2013-07-20 13:15:00,73.4,64.6,29.88,WNW,288,2.0,7.0,74,0.00,,,0.00,meteohub,2013-07-20 17:15:00,
2013-07-20 13:20:00,73.8,64.9,29.88,WNW,287,0.0,7.0,74,0.00,,,0.00,meteohub,2013-07-20 17:20:00,
2013-07-20 13:25:00,73.9,65.1,29.87,West,265,1.0,7.0,74,0.00,,,0.00,meteohub,2013-07-20 17:25:00,
2013-07-20 13:30:00,73.9,64.8,29.87,SSW,213,1.0,4.0,73,0.00,,,0.00,meteohub,2013-07-20 17:30:00,
2013-07-20 13:35:00,73.8,67.6,29.87,ENE,67,1.0,4.0,81,0.00,,,0.00,meteohub,2013-07-20 17:35:00,
2013-07-20 13:40:00,73.0,67.6,29.87,ENE,58,4.0,6.0,83,0.00,,,0.00,meteohub,2013-07-20 17:40:00,
2013-07-20 13:45:00,72.0,66.9,29.88,SE,125,3.0,9.0,84,0.00,,,0.00,meteohub,2013-07-20 17:45:00,
2013-07-20 13:50:00,71.1,66.7,29.88,SSE,164,1.0,9.0,86,0.00,,,0.00,meteohub,2013-07-20 17:50:00,
2013-07-20 13:55:00,70.2,65.1,29.87,ESE,111,2.0,9.0,84,0.00,,,0.00,meteohub,2013-07-20 17:55:00,
2013-07-20 14:00:00,70.2,65.1,29.86,ESE,111,2.0,5.0,84,0.00,,,0.00,meteohub,2013-07-20 18:00:00,
2013-07-20 14:05:00,70.2,64.8,29.86,East,95,2.0,4.0,83,0.00,,,0.00,meteohub,2013-07-20 18:05:00,
2013-07-20 14:06:00,70.2,64.8,29.86,East,95,1.0,4.0,83,0.00,,,0.00,meteohub,2013-07-20 18:06:00,
2013-07-20 14:11:00,70.2,64.4,29.86,NE,54,2.0,3.0,82,0.00,,,0.00,meteohub,2013-07-20 18:11:00,
2013-07-20 14:16:00,70.2,64.4,29.86,ESE,103,2.0,6.0,82,0.00,,,0.00,meteohub,2013-07-20 18:16:00,
2013-07-20 14:21:00,70.0,64.6,29.87,SE,131,3.0,6.0,83,0.00,,,0.00,meteohub,2013-07-20 18:21:00,
2013-07-20 14:26:00,69.8,65.1,29.87,East,79,2.0,6.0,85,0.00,,,0.00,meteohub,2013-07-20 18:26:00,
2013-07-20 14:31:00,69.6,64.6,29.86,ESE,106,2.0,4.0,84,0.00,,,0.00,meteohub,2013-07-20 18:31:00,
2013-07-20 14:36:00,69.4,65.1,29.87,SE,125,1.0,4.0,86,0.00,,,0.00,meteohub,2013-07-20 18:36:00,
2013-07-20 14:42:00,69.1,65.1,29.87,ESE,106,1.0,4.0,87,0.00,,,0.00,meteohub,2013-07-20 18:42:00,
2013-07-20 14:47:00,69.1,64.8,29.86,NE,44,3.0,4.0,86,0.00,,,0.00,meteohub,2013-07-20 18:47:00,
2013-07-20 14:52:00,68.9,64.2,29.87,East,96,2.0,9.0,85,0.00,,,0.00,meteohub,2013-07-20 18:52:00,
2013-07-20 14:57:00,68.5,64.2,29.86,ENE,69,1.0,9.0,86,0.00,,,0.00,meteohub,2013-07-20 18:57:00,
2013-07-20 15:02:00,68.2,63.9,29.85,East,80,0.0,9.0,86,0.00,,,0.00,meteohub,2013-07-20 19:02:00,
2013-07-20 15:07:00,68.0,64.4,29.86,ESE,103,1.0,5.0,88,0.00,,,0.00,meteohub,2013-07-20 19:07:00,
2013-07-20 15:12:00,67.8,63.9,29.86,West,271,1.0,5.0,87,0.00,,,0.00,meteohub,2013-07-20 19:12:00,
2013-07-20 15:17:00,67.8,64.2,29.86,WNW,288,1.0,4.0,88,0.00,,,0.00,meteohub,2013-07-20 19:17:00,
2013-07-20 15:22:00,67.6,64.0,29.86,WNW,287,2.0,4.0,88,0.00,,,0.00,meteohub,2013-07-20 19:22:00,
2013-07-20 15:27:00,67.8,64.4,29.86,WNW,283,1.0,4.0,89,0.00,,,0.00,meteohub,2013-07-20 19:27:00,
2013-07-20 15:32:00,67.8,64.2,29.86,WNW,282,0.0,4.0,88,0.00,,,0.00,meteohub,2013-07-20 19:32:00,
2013-07-20 15:37:00,68.0,64.6,29.86,WNW,301,1.0,4.0,89,0.00,,,0.00,meteohub,2013-07-20 19:37:00,
2013-07-20 15:42:00,68.2,64.8,29.86,WNW,301,1.0,2.0,89,0.00,,,0.00,meteohub,2013-07-20 19:42:00,
2013-07-20 15:47:00,68.2,64.8,29.85,WNW,297,0.0,2.0,89,0.00,,,0.00,meteohub,2013-07-20 19:47:00,
2013-07-20 15:52:00,68.4,64.9,29.85,WNW,297,1.0,1.0,89,0.00,,,0.00,meteohub,2013-07-20 19:52:00,
2013-07-20 15:57:00,68.4,65.3,29.85,WNW,285,0.0,2.0,90,0.00,,,0.00,meteohub,2013-07-20 19:57:00,
2013-07-20 16:02:00,68.5,65.5,29.86,WNW,285,0.0,2.0,90,0.00,,,0.00,meteohub,2013-07-20 20:02:00,
2013-07-20 16:08:00,68.9,65.5,29.86,WNW,285,0.0,2.0,89,0.00,,,0.00,meteohub,2013-07-20 20:08:00,
2013-07-20 16:13:00,69.3,66.2,29.86,NW,310,2.0,2.0,90,0.00,,,0.00,meteohub,2013-07-20 20:13:00,
2013-07-20 16:18:00,69.6,66.2,29.86,NW,308,0.0,2.0,89,0.00,,,0.00,meteohub,2013-07-20 20:18:00,
2013-07-20 16:23:00,70.0,66.6,29.86,NW,305,0.0,2.0,89,0.00,,,0.00,meteohub,2013-07-20 20:23:00,
2013-07-20 16:28:00,70.2,66.4,29.85,NW,305,0.0,2.0,88,0.00,,,0.00,meteohub,2013-07-20 20:28:00,
2013-07-20 16:33:00,70.3,66.6,29.85,NW,305,1.0,1.0,88,0.00,,,0.00,meteohub,2013-07-20 20:33:00,
2013-07-20 16:38:00,70.5,66.7,29.85,NE,48,4.0,4.0,88,0.00,,,0.00,meteohub,2013-07-20 20:38:00,
2013-07-20 16:44:00,70.3,66.0,29.85,ENE,64,2.0,4.0,86,0.00,,,0.00,meteohub,2013-07-20 20:44:00,
2013-07-20 16:49:00,70.2,66.4,29.85,NE,55,2.0,4.0,88,0.00,,,0.00,meteohub,2013-07-20 20:49:00,
2013-07-20 16:54:00,70.2,65.8,29.86,NE,54,0.0,4.0,86,0.00,,,0.00,meteohub,2013-07-20 20:54:00,
2013-07-20 16:59:00,70.0,66.0,29.86,ESE,108,1.0,4.0,87,0.00,,,0.00,meteohub,2013-07-20 20:59:00,
2013-07-20 17:04:00,70.2,66.0,29.85,ESE,102,0.0,4.0,87,0.00,,,0.00,meteohub,2013-07-20 21:04:00,
2013-07-20 17:09:00,70.3,66.2,29.86,East,100,2.0,4.0,87,0.00,,,0.00,meteohub,2013-07-20 21:09:00,
2013-07-20 17:14:00,70.7,66.6,29.86,ESE,115,2.0,2.0,87,0.00,,,0.00,meteohub,2013-07-20 21:14:00,
2013-07-20 17:19:00,71.1,66.7,29.86,East,79,1.0,2.0,86,0.00,,,0.00,meteohub,2013-07-20 21:19:00,
2013-07-20 17:24:00,71.2,66.9,29.86,ESE,109,2.0,4.0,86,0.00,,,0.00,meteohub,2013-07-20 21:24:00,
2013-07-20 17:30:00,71.2,66.6,29.86,NE,53,3.0,4.0,85,0.00,,,0.00,meteohub,2013-07-20 21:30:00,
2013-07-20 17:35:00,71.2,66.6,29.86,ESE,102,1.0,4.0,85,0.00,,,0.00,meteohub,2013-07-20 21:35:00,
2013-07-20 17:40:00,71.4,66.4,29.86,NE,56,1.0,4.0,84,0.00,,,0.00,meteohub,2013-07-20 21:40:00,
2013-07-20 17:45:00,71.6,66.9,29.86,ENE,62,1.0,3.0,85,0.00,,,0.00,meteohub,2013-07-20 21:45:00,
2013-07-20 17:50:00,72.0,67.3,29.86,East,83,1.0,3.0,85,0.00,,,0.00,meteohub,2013-07-20 21:50:00,
2013-07-20 17:55:00,72.0,67.3,29.86,SE,129,2.0,4.0,85,0.00,,,0.00,meteohub,2013-07-20 21:55:00,
2013-07-20 18:00:00,72.0,67.3,29.85,SE,125,0.0,4.0,85,0.00,,,0.00,meteohub,2013-07-20 22:00:00,
2013-07-20 18:05:00,71.8,66.7,29.85,ESE,104,2.0,4.0,84,0.00,,,0.00,meteohub,2013-07-20 22:05:00,
2013-07-20 18:10:00,71.2,65.8,29.85,East,96,2.0,4.0,83,0.00,,,0.00,meteohub,2013-07-20 22:10:00,
2013-07-20 18:16:00,71.2,66.6,29.85,ESE,115,0.0,4.0,85,0.00,,,0.00,meteohub,2013-07-20 22:16:00,
2013-07-20 18:21:00,71.1,66.0,29.85,ESE,115,2.0,4.0,84,0.00,,,0.00,meteohub,2013-07-20 22:21:00,
2013-07-20 18:26:00,70.9,65.8,29.84,SE,129,1.0,3.0,84,0.00,,,0.00,meteohub,2013-07-20 22:26:00,
2013-07-20 18:31:00,70.7,65.7,29.84,ESE,109,1.0,3.0,84,0.00,,,0.00,meteohub,2013-07-20 22:31:00,
2013-07-20 18:36:00,70.3,64.6,29.83,ESE,108,1.0,3.0,82,0.00,,,0.00,meteohub,2013-07-20 22:36:00,
2013-07-20 18:41:00,70.5,65.8,29.83,ESE,108,1.0,3.0,85,0.00,,,0.00,meteohub,2013-07-20 22:41:00,
2013-07-20 18:46:00,70.5,65.8,29.83,West,279,2.0,3.0,85,0.00,,,0.00,meteohub,2013-07-20 22:46:00,
2013-07-20 18:51:00,70.5,65.5,29.83,West,279,0.0,2.0,84,0.00,,,0.00,meteohub,2013-07-20 22:51:00,
2013-07-20 18:56:00,70.7,66.0,29.83,West,279,0.0,2.0,85,0.00,,,0.00,meteohub,2013-07-20 22:56:00,
2013-07-20 19:01:00,70.9,66.2,29.83,West,279,0.0,2.0,85,0.00,,,0.00,meteohub,2013-07-20 23:01:00,
2013-07-20 19:06:00,71.1,66.4,29.83,West,279,0.0,1.0,85,0.00,,,0.00,meteohub,2013-07-20 23:06:00,
2013-07-20 19:12:00,71.2,66.6,29.83,West,279,0.0,1.0,85,0.00,,,0.00,meteohub,2013-07-20 23:12:00,
2013-07-20 19:17:00,71.1,66.4,29.83,West,279,1.0,1.0,85,0.00,,,0.00,meteohub,2013-07-20 23:17:00,
2013-07-20 19:22:00,70.7,66.0,29.83,NNW,343,0.0,2.0,85,0.00,,,0.00,meteohub,2013-07-20 23:22:00,
2013-07-20 19:27:00,70.3,66.0,29.83,ENE,77,2.0,4.0,86,0.00,,,0.00,meteohub,2013-07-20 23:27:00,
2013-07-20 19:32:00,70.2,65.8,29.84,ENE,77,0.0,4.0,86,0.00,,,0.00,meteohub,2013-07-20 23:32:00,
2013-07-20 19:37:00,70.2,66.0,29.84,ENE,77,1.0,4.0,87,0.00,,,0.00,meteohub,2013-07-20 23:37:00,
2013-07-20 19:42:00,70.0,66.2,29.84,East,97,2.0,3.0,88,0.00,,,0.00,meteohub,2013-07-20 23:42:00,
2013-07-20 19:47:00,69.4,66.0,29.84,East,97,1.0,3.0,89,0.00,,,0.00,meteohub,2013-07-20 23:47:00,
2013-07-20 19:52:00,69.1,65.7,29.84,ESE,102,1.0,3.0,89,0.00,,,0.00,meteohub,2013-07-20 23:52:00,
2013-07-20 19:57:00,68.7,65.7,29.84,ESE,102,1.0,3.0,90,0.00,,,0.00,meteohub,2013-07-20 23:57:00,
2013-07-20 20:02:00,68.7,65.7,29.84,ESE,102,1.0,3.0,90,0.00,,,0.00,meteohub,2013-07-21 00:02:00,
2013-07-20 20:08:00,68.5,65.8,29.84,ESE,102,0.0,3.0,91,0.00,,,0.00,meteohub,2013-07-21 00:08:00,
2013-07-20 20:13:00,68.5,65.8,29.84,ESE,102,0.0,2.0,91,0.00,,,0.00,meteohub,2013-07-21 00:13:00,
2013-07-20 20:18:00,68.5,65.8,29.84,ESE,102,0.0,2.0,91,0.00,,,0.00,meteohub,2013-07-21 00:18:00,
2013-07-20 20:23:00,68.4,65.7,29.84,ENE,75,2.0,2.0,91,0.00,,,0.00,meteohub,2013-07-21 00:23:00,
2013-07-20 20:29:00,68.2,65.5,29.84,NE,54,1.0,2.0,91,0.00,,,0.00,meteohub,2013-07-21 00:29:00,
2013-07-20 20:34:00,68.0,65.3,29.84,NE,54,1.0,3.0,91,0.00,,,0.00,meteohub,2013-07-21 00:34:00,
2013-07-20 20:39:00,67.8,65.1,29.84,NE,54,1.0,3.0,91,0.00,,,0.00,meteohub,2013-07-21 00:39:00,
2013-07-20 20:44:00,67.6,65.3,29.85,North,356,1.0,3.0,92,0.00,,,0.00,meteohub,2013-07-21 00:44:00,
2013-07-20 20:49:00,67.5,65.1,29.85,North,356,0.0,3.0,92,0.00,,,0.00,meteohub,2013-07-21 00:49:00,
2013-07-20 20:54:00,67.5,65.1,29.86,North,356,0.0,2.0,92,0.00,,,0.00,meteohub,2013-07-21 00:54:00,
2013-07-20 20:59:00,67.3,65.1,29.86,North,356,1.0,2.0,93,0.00,,,0.00,meteohub,2013-07-21 00:59:00,
2013-07-20 21:04:00,67.3,64.9,29.86,North,356,0.0,2.0,92,0.00,,,0.00,meteohub,2013-07-21 01:04:00,
2013-07-20 21:09:00,67.3,65.1,29.86,North,356,0.0,2.0,93,0.00,,,0.00,meteohub,2013-07-21 01:09:00,
2013-07-20 21:14:00,66.9,64.8,29.86,North,356,1.0,2.0,93,0.00,,,0.00,meteohub,2013-07-21 01:14:00,
2013-07-20 21:19:00,66.7,64.6,29.86,NW,320,1.0,1.0,93,0.00,,,0.00,meteohub,2013-07-21 01:19:00,
2013-07-20 21:24:00,66.7,64.9,29.87,NW,320,0.0,2.0,94,0.00,,,0.00,meteohub,2013-07-21 01:24:00,
2013-07-20 21:30:00,66.6,64.4,29.87,NW,320,0.0,2.0,93,0.00,,,0.00,meteohub,2013-07-21 01:30:00,
2013-07-20 21:35:00,66.6,64.8,29.87,NW,320,0.0,2.0,94,0.00,,,0.00,meteohub,2013-07-21 01:35:00,
2013-07-20 21:40:00,66.4,64.6,29.88,NW,320,0.0,1.0,94,0.00,,,0.00,meteohub,2013-07-21 01:40:00,
2013-07-20 21:46:00,66.4,64.6,29.88,NW,320,0.0,1.0,94,0.00,,,0.00,meteohub,2013-07-21 01:46:00,
2013-07-20 21:51:00,66.4,64.6,29.88,NW,320,0.0,1.0,94,0.00,,,0.00,meteohub,2013-07-21 01:51:00,
2013-07-20 21:56:00,66.0,64.2,29.88,NW,320,0.0,1.0,94,0.00,,,0.00,meteohub,2013-07-21 01:56:00,
2013-07-20 22:01:00,66.0,64.6,29.89,NW,320,1.0,1.0,95,0.00,,,0.00,meteohub,2013-07-21 02:01:00,
2013-07-20 22:06:00,65.8,64.4,29.89,NW,320,0.0,1.0,95,0.00,,,0.00,meteohub,2013-07-21 02:06:00,
2013-07-20 22:11:00,65.8,64.4,29.89,WNW,297,0.0,1.0,95,0.00,,,0.00,meteohub,2013-07-21 02:11:00,
2013-07-20 22:16:00,65.7,64.2,29.90,NW,304,1.0,1.0,95,0.00,,,0.00,meteohub,2013-07-21 02:16:00,
2013-07-20 22:21:00,65.7,64.2,29.90,ENE,62,0.0,2.0,95,0.00,,,0.00,meteohub,2013-07-21 02:21:00,
2013-07-20 22:26:00,65.7,64.2,29.90,ENE,62,0.0,2.0,95,0.00,,,0.00,meteohub,2013-07-21 02:26:00,
2013-07-20 22:31:00,65.7,64.2,29.90,ENE,64,0.0,2.0,95,0.00,,,0.00,meteohub,2013-07-21 02:31:00,
2013-07-20 22:36:00,65.5,64.0,29.90,NW,308,1.0,2.0,95,0.00,,,0.00,meteohub,2013-07-21 02:36:00,
2013-07-20 22:41:00,65.5,64.0,29.90,WNW,287,2.0,2.0,95,0.00,,,0.00,meteohub,2013-07-21 02:41:00,
2013-07-20 22:46:00,65.5,64.0,29.91,West,264,0.0,6.0,95,0.00,,,0.00,meteohub,2013-07-21 02:46:00,
2013-07-20 22:52:00,65.5,64.0,29.90,West,278,2.0,6.0,95,0.00,,,0.00,meteohub,2013-07-21 02:52:00,
2013-07-20 22:57:00,65.5,64.0,29.91,WNW,282,2.0,6.0,95,0.00,,,0.00,meteohub,2013-07-21 02:57:00,
2013-07-20 23:02:00,65.5,64.0,29.91,WNW,282,0.0,4.0,95,0.00,,,0.00,meteohub,2013-07-21 03:02:00,
2013-07-20 23:07:00,65.5,64.0,29.91,West,278,1.0,4.0,95,0.00,,,0.00,meteohub,2013-07-21 03:07:00,
2013-07-20 23:13:00,65.3,63.9,29.91,West,278,1.0,4.0,95,0.00,,,0.00,meteohub,2013-07-21 03:13:00,
2013-07-20 23:18:00,65.3,63.9,29.90,West,278,1.0,2.0,95,0.00,,,0.00,meteohub,2013-07-21 03:18:00,
2013-07-20 23:23:00,65.3,63.9,29.91,West,278,0.0,2.0,95,0.00,,,0.00,meteohub,2013-07-21 03:23:00,
2013-07-20 23:28:00,65.5,63.7,29.91,West,278,0.0,2.0,94,0.00,,,0.00,meteohub,2013-07-21 03:28:00,
2013-07-20 23:33:00,65.3,63.5,29.91,West,278,1.0,2.0,94,0.00,,,0.00,meteohub,2013-07-21 03:33:00,
2013-07-20 23:39:00,65.3,63.5,29.91,West,278,1.0,1.0,94,0.00,,,0.00,meteohub,2013-07-21 03:39:00,
2013-07-20 23:44:00,65.1,63.3,29.90,West,278,0.0,2.0,94,0.00,,,0.00,meteohub,2013-07-21 03:44:00,
2013-07-20 23:49:00,65.1,63.3,29.90,West,278,1.0,2.0,94,0.00,,,0.00,meteohub,2013-07-21 03:49:00,
2013-07-20 23:54:00,65.1,63.0,29.90,West,278,0.0,2.0,93,0.00,,,0.00,meteohub,2013-07-21 03:54:00,
2013-07-20 23:59:00,65.3,63.1,29.90,West,278,0.0,1.0,93,0.00,,,0.00,meteohub,2013-07-21 03:59:00,